Regional Weather Roundup
Issued by NWS

Home | Current Version | Previous Version | Graphics & Text | Print | Product List | Glossary On
Versions: 1 2 3 4 5 6 7 8 9 10 11 12 13 14 15 16 17 18 19 20 21 22 23 24 25 26 27 28 29 30 31 32 33 34 35 36 37 38 39 40 41 42 43 44 45 46 47 48 49 50
444
ASUS44 KLIX 301105
RWRLA
LOUISIANA WEATHER ROUNDUP
NATIONAL WEATHER SERVICE NEW ORLEANS LA
600 AM CDT WED JUL 30 2014

NOTE: "FAIR" INDICATES FEW OR NO CLOUDS BELOW 12,000 FEET WITH NO
      SIGNIFICANT WEATHER AND/OR OBSTRUCTIONS TO VISIBILITY.
      SKY/WX - SKY CONDITION AND SIGNIFICANT WEATHER.
      TMP - AIR TEMPERATURE.    DP   - DEWPOINT TEMPERATURE.
      RH  - RELATIVE HUMIDITY.  PRES - PRESSURE.
      HX  - HEAT INDEX.         WCI  - WIND CHILL INDEX.

*  THESE STATIONS ARE NOT NWS OR FAA STATIONS AND ARE NOT UNDER
   NWS QUALITY CONTROL.

LAZ040-048-061>063-065-066-069-301200-
SOUTHEAST LOUISIANA

CITY           SKY/WX    TMP DP  RH WIND       PRES   REMARKS
N.O. AUDUBON     N/A     75  62  62 MISG        N/A
N.O. INTL ARPT PTCLDY    75  63  66 NE9       30.05R
N.O. LAKEFRONT CLEAR     76  62  62 NE16      30.06R
N.O. DOWNTOWN* FAIR      75  59  57 NE8       30.06R
SLIDELL        CLEAR     66  63  90 N3        30.05R
BATON ROUGE    PTCLDY    67  63  87 CALM      30.07R
BOOTHVILLE     CLEAR     79  69  71 NE8       30.04R
BELLE CHASSE   PTCLDY    72  63  73 N3        30.05R
BOGALUSA*      FAIR      64  61  87 CALM      30.08R
GALLIANO*      NOT AVBL
NEW ROADS*     FAIR      68  62  79 CALM      30.07S
GONZALES*      FAIR      69  67  92 CALM      30.06R
HAMMOND*       CLEAR     66  61  82 CALM      30.08R
HOUMA*         CLEAR     72  65  80 N3        30.05R
PORT FOURCHON* SUNNY     81  72  74 NE8       30.05S

$$

LAZ041-044-053-054-301200-
SOUTHWEST LOUISIANA

CITY           SKY/WX    TMP DP  RH WIND       PRES   REMARKS
LAKE CHARLES   PTCLDY    72  68  87 E6        30.06R
LAFAYETTE      CLEAR     71  67  87 NE3       30.07R
PATTERSON      CLEAR     72  66  83 CALM      30.09R
SALT POINT       N/A     74  70  87 CALM      30.05R
NEW IBERIA     CLEAR     73  67  81 NE7       30.07R
CHENAULT AIRPK CLEAR     72  66  83 CALM      30.07R

$$

LAZ027-028-301200-
CENTRAL LOUISIANA

CITY           SKY/WX    TMP DP  RH WIND       PRES   REMARKS
FORT POLK      CLEAR     70  66  87 E3        30.08R
ALEXANDRIA INT CLEAR     67  64  90 NE3       30.07R
ALEXANDRIA     CLEAR     64  61  90 CALM      30.09R FOG

$$

LAZ001-002-301200-
NORTHWEST LOUISIANA

CITY           SKY/WX    TMP DP  RH WIND       PRES   REMARKS
SHREVEPORT     PTCLDY    71  62  73 SE6       30.08R
BARKSDALE AFB  CLEAR     67  62  85 SE1       30.09R
DTN SHREVEPORT PTCLDY    71  61  70 SE7       30.08R

$$

LAZ014-016-301200-
NORTHEAST LOUISIANA

CITY           SKY/WX    TMP DP  RH WIND       PRES   REMARKS
MONROE         CLEAR     63  61  93 CALM      30.11R
TALLULAH       CLEAR     59  57  93 CALM      30.09S

$$




USA.gov is the U.S. government's official web portal to all federal, state and local government web resources and services.